Location: Izdebno
(52.6670°N, 16.2170°E)
Time: 07:10:32
(UTC+02:00)

Vanguard 1 - Pass Details

Date: 24 February 2024
Orbit: 653 x 3825 km, 34.2° (Epoch: 22 April)

Event Time Altitude Azimuth Distance (km) Brightness Sun altitude
Rises 17:48:29 0° 188° (S) 5,244 14.0 -4.5°
Reaches altitude 10° 17:53:01 10° 171° (S) 4,768 13.6 -5.2°
Maximum altitude 18:01:53 19° 132° (SE) 4,898 13.2 -6.5°
Drops below altitude 10° 18:13:29 10° 96° (E) 6,486 13.6 -8.3°
Enters shadow 18:14:48 - 94° (E) 6,706 13.6 -8.5°
